DW4152 Weather Reports


time (UTC)temp
F
wind
direction
speed
knots
gust
knots
rain 1hr
in
rain 24hr
in
rain mn
in
humidity
%
barometer
mb
20260510161545 79 185 0.0 2.6 0.00 0.00 0.00 43 1014.9
20260510160043 78 207 0.0 2.6 0.00 0.00 0.00 46 1015.0
20260510154538 77 138 0.0 3.5 0.00 0.00 0.00 52 1014.9
20260510153035 76 195 0.0 3.5 0.00 0.00 0.00 51 1015.1
20260510151532 76 125 0.0 2.6 0.00 0.00 0.00 56 1015.1
20260510150030 75 84 0.0 2.6 0.00 0.00 0.00 57 1015.3
20260510144529 74 25 0.0 0.9 0.00 0.00 0.00 57 1015.2
20260510143023 73 84 0.0 2.6 0.00 0.00 0.00 60 1015.1
20260510141520 72 235 0.0 2.6 0.00 0.00 0.00 67 1015.2
20260510140016 70 252 0.0 0.0 0.00 0.00 0.00 71 1015.1
20260510134512 68 254 0.0 0.0 0.00 0.00 0.00 77 1015.1
20260510133008 65 255 0.0 0.9 0.00 0.00 0.00 84 1015.2
20260510131504 63 240 0.0 0.0 0.00 0.00 0.00 95 1015.3
20260510130105 62 228 0.0 0.0 0.00 0.00 0.00 98 1015.1
20260510124559 62 236 0.0 0.0 0.00 0.00 0.00 99 1014.8
20260510123054 60 241 0.0 0.0 0.00 0.00 0.00 99 1014.7
20260510121550 60 241 0.0 0.0 0.00 0.00 0.00 99 1014.3
20260510120047 59 241 0.0 0.0 0.00 0.00 0.00 99 1014.1
20260510114553 58 241 0.0 0.0 0.00 0.00 0.00 98 1013.9
20260510113045 57 241 0.0 0.0 0.00 0.00 0.00 98 1013.8
20260510111541 57 241 0.0 0.0 0.00 0.00 0.00 98 1013.5
20260510110039 57 241 0.0 0.0 0.00 0.00 0.00 98 1013.3
20260510104540 57 241 0.0 0.0 0.00 0.00 0.00 98 1013.1
20260510103038 57 241 0.0 0.0 0.00 0.00 0.00 98 1012.7
20260510101536 57 241 0.0 0.0 0.00 0.00 0.00 98 1012.5
20260510100040 57 241 0.0 0.0 0.00 0.00 0.00 97 1012.3
20260510094532 57 241 0.0 0.0 0.00 0.00 0.00 97 1012.2
20260510093039 58 241 0.0 0.0 0.00 0.00 0.00 97 1012.0
20260510091531 58 241 0.0 0.0 0.00 0.00 0.00 97 1012.0
20260510090029 58 241 0.0 0.0 0.00 0.00 0.00 97 1011.9
20260510084531 58 241 0.0 0.0 0.00 0.00 0.00 97 1011.8
20260510083025 58 241 0.0 0.0 0.00 0.00 0.00 97 1011.8
20260510081526 58 241 0.0 0.0 0.00 0.00 0.00 97 1011.7
20260510080022 59 241 0.0 0.0 0.00 0.00 0.00 97 1011.6
20260510074522 59 241 0.0 0.0 0.00 0.00 0.00 97 1011.4
20260510073023 59 241 0.0 0.0 0.00 0.00 0.00 97 1011.3
20260510071533 59 241 0.0 0.0 0.00 0.00 0.00 97 1011.1
20260510070019 59 241 0.0 0.0 0.00 0.00 0.00 97 1011.2
20260510064518 59 241 0.0 0.0 0.00 0.00 0.00 97 1011.2
20260510063023 59 241 0.0 0.0 0.00 0.00 0.00 96 1011.4
20260510061533 59 241 0.0 0.0 0.00 0.00 0.00 96 1011.3
20260510060014 60 241 0.0 0.0 0.00 0.00 0.00 96 1011.3
20260510054513 60 241 0.0 0.0 0.00 0.00 0.00 96 1011.3
20260510053012 60 241 0.0 0.0 0.00 0.00 0.00 96 1011.6
20260510051510 60 241 0.0 0.0 0.00 0.00 0.00 96 1011.7
20260510050009 61 241 0.0 0.0 0.00 0.00 0.00 96 1011.7
20260510044509 61 241 0.0 0.0 0.00 0.00 0.00 96 1011.7
20260510043013 61 241 0.0 0.0 0.00 0.00 0.00 96 1011.8
20260510041505 61 241 0.0 0.0 0.00 0.00 0.00 95 1011.6
20260510040004 61 241 0.0 0.0 0.00 0.00 0.00 95 1011.5
20260510034503 61 241 0.0 0.0 0.00 0.00 0.00 95 1011.7
20260510033002 61 241 0.0 0.0 0.00 0.00 0.00 94 1011.6
20260510031502 62 241 0.0 0.0 0.00 0.00 0.00 94 1011.7
20260510030004 62 241 0.0 0.0 0.00 0.00 0.00 93 1011.5
20260510024500 62 241 0.0 0.0 0.00 0.00 0.00 93 1011.5
20260510023100 63 241 0.0 0.0 0.00 0.00 0.00 92 1011.4
20260510021603 63 241 0.0 0.0 0.00 0.00 0.00 91 1011.4
20260510020100 64 241 0.0 0.0 0.00 0.00 0.00 90 1011.1
20260510014559 64 241 0.0 0.0 0.00 0.00 0.00 89 1011.1
20260510013059 65 241 0.0 0.0 0.00 0.00 0.00 88 1010.7
20260510011559 65 241 0.0 0.0 0.00 0.00 0.00 87 1010.4
20260510010057 67 241 0.0 0.0 0.00 0.00 0.00 84 1010.1
20260510004600 68 241 0.0 0.0 0.00 0.00 0.00 83 1010.0
20260510003111 69 241 0.0 0.0 0.00 0.00 0.00 81 1010.0
20260510001652 70 241 0.0 0.0 0.00 0.00 0.00 80 1009.9
20260510000047 70 241 0.0 0.0 0.00 0.00 0.00 78 1009.8
20260509234600 71 241 0.0 0.0 0.00 0.00 0.00 77 1009.6
20260509233146 72 241 0.0 0.0 0.00 0.00 0.00 76 1009.2
20260509231552 72 240 0.0 0.0 0.00 0.00 0.00 75 1009.3
20260509230055 73 235 0.0 0.0 0.00 0.00 0.00 73 1009.1
20260509224544 73 235 0.0 0.0 0.00 0.00 0.00 71 1009.0
20260509223045 74 234 0.0 1.7 0.00 0.00 0.00 69 1008.8
20260509221543 74 264 0.0 0.9 0.00 0.00 0.00 69 1009.0
20260509220039 75 265 0.0 2.6 0.00 0.00 0.00 68 1008.8
20260509214534 75 223 0.0 0.9 0.00 0.00 0.00 70 1009.0
20260509213031 75 296 0.0 1.7 0.00 0.00 0.00 70 1008.9
20260509211525 74 286 0.0 0.9 0.00 0.00 0.00 70 1008.7
20260509210025 74 306 0.0 0.0 0.00 0.00 0.00 71 1008.7
20260509204523 74 302 0.0 0.0 0.00 0.00 0.00 71 1008.9
20260509203023 75 216 0.0 2.6 0.00 0.00 0.00 69 1009.0
20260509201520 74 242 0.0 2.6 0.00 0.00 0.00 71 1009.0
20260509200021 73 278 0.0 1.7 0.00 0.00 0.00 72 1009.1
20260509194513 71 236 0.0 2.6 0.00 0.00 0.00 73 1009.4
20260509193013 71 301 0.0 0.0 0.00 0.00 0.00 74 1009.6
20260509191510 71 302 0.0 4.3 0.00 0.00 0.00 73 1009.7
20260509190015 72 259 0.0 0.0 0.00 0.00 0.00 72 1009.7
20260509184509 72 259 0.0 1.7 0.00 0.00 0.00 73 1009.6
20260509183018 71 298 0.0 0.0 0.00 0.00 0.00 73 1009.9
20260509181505 71 299 0.0 0.0 0.00 0.00 0.00 73 1010.1
20260509180004 71 300 0.0 0.0 0.00 0.00 0.00 73 1010.1
20260509174505 72 300 0.0 1.7 0.00 0.00 0.00 72 1010.2
20260509173002 71 284 0.0 0.9 0.00 0.00 0.00 72 1010.3
20260509171601 71 285 0.0 1.7 0.00 0.00 0.00 73 1010.5
20260509170058 70 271 0.0 0.0 0.00 0.00 0.00 71 1010.7
20260509164602 72 272 0.0 2.6 0.00 0.00 0.00 69 1010.8
20260509163100 72 254 0.0 0.9 0.00 0.00 0.00 67 1011.2